Location: Wingville
(42.9917°N, 90.4915°W)
Time: 11:06:48
(UTC+00:00)

Cosmos 1805 Rocket - Pass Details

Date: 08 December 2022
Orbit: 605 x 629 km, 82.5° (Epoch: 30 January)

Event Time Altitude Azimuth Distance (km) Brightness Sun altitude
Rises 11:58:19 0° 143° (SE) 2,854 7.9 -14.5°
Reaches altitude 10° 12:01:20 10° 120° (ESE) 1,961 7.5 -14.0°
Maximum altitude 12:03:48 15° 85° (E) 1,657 6.8 -13.6°
Drops below altitude 10° 12:06:18 10° 50° (NE) 1,978 6.6 -13.1°
Sets 12:09:20 0° 27° (NNE) 2,894 7.1 -12.6°
